This is the latest recevied weather packets stored in our database for station/object K4WCH. If no packets are shown the sender has not sent any weather packets the latest 10 day(s).
| Time | Temp. | Humidity | Pressure | Rain* | Wind** | Luminosity | Snow |
|---|---|---|---|---|---|---|---|
| 1788483671 | 26.67° C | 87% | 1015.1 hPa | 0 mm | - | 0 W/m² | - |
| 1788483366 | 26.67° C | 87% | 1015.1 hPa | 0 mm | - | 0 W/m² | - |
| 1788483061 | 26.67° C | 87% | 1015.4 hPa | 0 mm | - | 0 W/m² | - |
| 1788482757 | 26.67° C | 88% | 1014.9 hPa | 0 mm | - | 0 W/m² | - |
| 1788482451 | 26.67° C | 88% | 1014.9 hPa | 0 mm | - | 0 W/m² | - |
| 1788482148 | 26.67° C | 87% | 1014.9 hPa | 0 mm | - | 0 W/m² | - |
| 1788481843 | 26.67° C | 91% | 1015 hPa | 0 mm | - | 0 W/m² | - |
| 1788481539 | 27.22° C | 91% | 1014.7 hPa | 0 mm | - | 0 W/m² | - |
| 1788481238 | 27.22° C | 91% | 1014.8 hPa | 0 mm | - | 0 W/m² | - |
| 1788480935 | 27.22° C | 91% | 1014.6 hPa | 0 mm | - | 0 W/m² | - |
| 1788480633 | 27.22° C | 91% | 1014.5 hPa | 0 mm | - | 0 W/m² | - |
| 1788480333 | 27.22° C | 91% | 1014.5 hPa | 0 mm | - | 0 W/m² | - |
| 1788480029 | 27.22° C | 90% | 1014.5 hPa | 0 mm | - | 2 W/m² | - |
| 1788479733 | 27.22° C | 90% | 1014.6 hPa | 0 mm | - | 2 W/m² | - |
| 1788479420 | 27.22° C | 90% | 1014.6 hPa | 0 mm | - | 2 W/m² | - |
| 1788479115 | 27.22° C | 90% | 1014.6 hPa | 0 mm | - | 2 W/m² | - |
| 1788478810 | 27.22° C | 89% | 1014.7 hPa | 0 mm | - | 4 W/m² | - |
| 1788478506 | 27.22° C | 89% | 1014.7 hPa | 0 mm | - | 4 W/m² | - |
| 1788478201 | 27.78° C | 89% | 1014.8 hPa | 0 mm | - | 6 W/m² | - |
| 1788477897 | 27.78° C | 89% | 1014.7 hPa | 0 mm | - | 7 W/m² | - |
| 1788477596 | 27.78° C | 88% | 1014.6 hPa | 0 mm | - | 11 W/m² | - |
| 1788477291 | 27.78° C | 88% | 1014.8 hPa | 0 mm | - | 14 W/m² | - |
| 1788476986 | 27.78° C | 88% | 1014.6 hPa | 0 mm | - | 17 W/m² | - |
| 1788476682 | 27.78° C | 88% | 1014.5 hPa | 0 mm | - | 15 W/m² | - |
| 1788476378 | 27.78° C | 88% | 1014.6 hPa | 0 mm | - | 23 W/m² | - |
* Rain latest hour (hover to see other rain measurements)
** Current wind speed in m/s (hover to see current wind gust speed)